Location: Trois-Rivi�res
(46.3500°N, 72.5500°W)
Time: 00:34:47
(UTC-04:00)

Cosmos 1544 - Visible Passes

Search period start: 27 May 2016 00:00
Search period end: 06 June 2016 00:00
Orbit: 483 x 502 km, 82.5° (Epoch: 26 May)

Date Brightness Start Highest point End Pass type
(mag) Time Alt. Az. Time Alt. Az. Time Alt. Az.
27 May 5.6 00:50:00 10° WNW 00:51:46 13° W 00:52:01 13° W visible
27 May 4.2 22:51:12 10° N 22:54:38 32° ENE 22:55:27 29° ESE visible
28 May 5.1 00:26:58 10° NW 00:29:38 19° W 00:29:59 18° W visible
28 May 4.7 22:29:11 10° NNE 22:32:14 23° ENE 22:33:25 20° E visible
29 May 4.6 00:04:16 10° NNW 00:07:27 26° W 00:07:57 25° WSW visible
29 May 5.2 22:07:21 10° NNE 22:09:49 16° ENE 22:11:24 13° E visible
29 May 4.1 23:41:43 10° NNW 23:45:14 38° W 23:45:56 35° WSW visible
30 May 5.5 21:45:56 10° NE 21:47:21 12° ENE 21:48:46 10° E visible
30 May 3.5 23:19:17 10° NNW 23:22:59 58° W 23:23:56 43° SSW visible
31 May 3.0 22:56:55 10° N 23:00:43 88° W 23:01:56 41° S visible
01 Jun 3.3 22:34:38 10° N 22:38:23 61° E 22:39:57 32° SSE visible
02 Jun 5.9 00:12:29 10° WNW 00:13:03 10° W 00:13:38 10° W visible
02 Jun 3.8 22:12:27 10° N 22:16:03 40° ENE 22:17:58 23° SE visible
02 Jun 5.6 23:48:43 10° NW 23:50:54 15° W 23:52:30 12° WSW visible
03 Jun 4.4 21:50:21 10° NNE 21:53:39 28° ENE 21:56:00 15° SE visible
03 Jun 5.2 23:25:50 10° NW 23:28:44 21° W 23:30:32 15° SW visible
04 Jun 4.8 21:28:23 10° NNE 21:31:14 20° ENE 21:34:02 10° ESE visible
04 Jun 4.6 23:03:11 10° NNW 23:06:31 30° W 23:08:35 18° SW visible
05 Jun 4.0 22:40:40 10° NNW 22:44:16 45° W 22:46:38 19° SSW visible
